User: anonymous   Login
Location: ??
(35.4032°N, 139.3073°E)
Time: 18:08:00
(UTC+00:00)
Language:

Cosmos 1943 Rocket - Orbit

View from above orbital plane
View from above orbital plane
View from above satellite
View from above satellite

Ground track
Ground track

The orbit data is extracted from the following two-line orbital elements,

1 19120U 88039B   24170.85302734  .00000048  00000-0  45804-4 0  9994
2 19120  71.0154 318.0430 0023495 228.3996 131.5117 14.19418269869416
Epoch (UTC): 18 June 2024 20:28:21
Eccentricity: 0.0023495
inclination: 71.0154°
perigee height: 810 km
apogee height: 844 km
right ascension of ascending node: 318.0430°
argument of perigee: 228.3996°
revolutions per day: 14.19418269
mean anomaly at epoch: 131.5117°
orbit number at epoch: 86941

The dashed part of the orbit path shows where the satellite is in the earth's shadow,  

DLR